Location: Augirein
(42.9320°N, 0.9181°E)
Time: 22:26:59
(UTC+00:00)

Tiangong - Pass Details

Date: 30 September 2021
Orbit: 382 x 385 km, 41.5° (Epoch: 19 October)

Event Time Altitude Azimuth Distance (km) Brightness Sun altitude
Exits shadow 03:16:40 11° 100° (E) 1,355 4.5 -28.6°
Drops below altitude 10° 03:16:43 10° 99° (E) 1,377 4.5 -28.6°
Sets 03:19:03 0° 85° (E) 2,249 6.0 -28.2°
